Find Starlink 4502

NORAD ID: 53557 Int'l Des: 2022-101 Owner: SPXS Country: US Constellation: starlink operational
LEOCIRCULAR

現在のビュー

3D地球を読み込み中...

About Starlink 4502

Starlink 4502 (NORAD 53557) is a starlink constellation satellite (v1.5) launched Aug 19, 2022 by SPXS of US. It operates in LEO, CIRCULAR orbit with a mass of 300.00 kg.

Starlink 4502について

説明を読み込み中...

次回通過

Passes for default location (London). Set your location on the main map for personalized predictions.

高度履歴

Loading altitude history...

軌道要素

1 53557U 22101AG 26170.80489708 .00000126 00000-0 26010-4 0 9993
2 53557 53.1592 325.5943 0001226 87.9495 272.1636 15.08832504212374
Epoch: Jun 19, 2026 • Age: 8 hours

現在のステータス

高度 553.4 km
速度 7.58 km/s
衛星直下点 -39.52°S, 27.64°W
打ち上げ日 Aug 19, 2022
運用期間 3.8 years
タイプ internet

技術仕様

分類 Payload
質量 300.00 kg
乾燥質量 290.00 kg
総質量 300.00 kg
長さ 0.20 m
直径 2.80 m
スパン 9.00 m
形状 Box + pan
製造者 SPXS
バスタイプ Starlink
フェーズステータス In Orbit
所有者/国 SPXS/US

Most Searched